Year,Month,Day,Hour,Minute,Value (Times are PST for temperature in C)
2015,06,30,00,00,20.60
2015,06,30,00,01,20.60
2015,06,30,00,02,20.60
2015,06,30,00,03,20.60
2015,06,30,00,04,20.60
2015,06,30,00,05,20.60
2015,06,30,00,06,20.60
2015,06,30,00,07,20.60
2015,06,30,00,08,20.60
2015,06,30,00,09,20.60
2015,06,30,00,10,20.60
2015,06,30,00,11,20.60
2015,06,30,00,12,20.60
2015,06,30,00,13,20.60
2015,06,30,00,14,20.60
2015,06,30,00,15,20.60
2015,06,30,00,16,20.60
2015,06,30,00,17,20.60
2015,06,30,00,18,20.60
2015,06,30,00,19,20.60
2015,06,30,00,20,20.60
2015,06,30,00,21,20.50
2015,06,30,00,22,20.50
2015,06,30,00,23,20.50
2015,06,30,00,24,20.40
2015,06,30,00,25,20.40
2015,06,30,00,26,20.40
2015,06,30,00,27,20.30
2015,06,30,00,28,20.30
2015,06,30,00,29,20.30
2015,06,30,00,30,20.30
2015,06,30,00,31,20.20
2015,06,30,00,32,20.20
2015,06,30,00,33,20.10
2015,06,30,00,34,20.10
2015,06,30,00,35,20.10
2015,06,30,00,36,20.00
2015,06,30,00,37,20.00
2015,06,30,00,38,20.00
2015,06,30,00,39,20.00
2015,06,30,00,40,19.90
2015,06,30,00,41,19.90
2015,06,30,00,42,19.90
2015,06,30,00,43,19.90
2015,06,30,00,44,19.90
2015,06,30,00,45,19.90
2015,06,30,00,46,19.90
2015,06,30,00,47,19.80
2015,06,30,00,48,19.80
2015,06,30,00,49,19.80
2015,06,30,00,50,19.80
2015,06,30,00,51,19.80
2015,06,30,00,52,19.80
2015,06,30,00,53,19.80
2015,06,30,00,54,19.80
2015,06,30,00,55,19.80
2015,06,30,00,56,19.80
2015,06,30,00,57,19.80
2015,06,30,00,58,19.70
2015,06,30,00,59,19.70
2015,06,30,01,00,19.70
2015,06,30,01,01,19.70
2015,06,30,01,02,19.70
2015,06,30,01,03,19.70
2015,06,30,01,04,19.70
2015,06,30,01,05,19.70
2015,06,30,01,06,19.70
2015,06,30,01,07,19.60
2015,06,30,01,08,19.60
2015,06,30,01,09,19.60
2015,06,30,01,10,19.60
2015,06,30,01,11,19.60
2015,06,30,01,12,19.60
2015,06,30,01,13,19.60
2015,06,30,01,14,19.50
2015,06,30,01,15,19.50
2015,06,30,01,16,19.50
2015,06,30,01,17,19.40
2015,06,30,01,18,19.40
2015,06,30,01,19,19.40
2015,06,30,01,20,19.40
2015,06,30,01,21,19.40
2015,06,30,01,22,19.40
2015,06,30,01,23,19.40
2015,06,30,01,24,19.40
2015,06,30,01,25,19.40
2015,06,30,01,26,19.30
2015,06,30,01,27,19.30
2015,06,30,01,28,19.30
2015,06,30,01,29,19.30
2015,06,30,01,30,19.30
2015,06,30,01,31,19.20
2015,06,30,01,32,19.20
2015,06,30,01,33,19.20
2015,06,30,01,34,19.10
2015,06,30,01,35,19.10
2015,06,30,01,36,19.00
2015,06,30,01,37,19.00
2015,06,30,01,38,18.90
2015,06,30,01,39,18.80
2015,06,30,01,40,18.80
2015,06,30,01,41,18.70
2015,06,30,01,42,18.70
2015,06,30,01,43,18.60
2015,06,30,01,44,18.60
2015,06,30,01,45,18.50
2015,06,30,01,46,18.50
2015,06,30,01,47,18.40
2015,06,30,01,48,18.30
2015,06,30,01,49,18.30
2015,06,30,01,50,18.20
2015,06,30,01,51,18.20
2015,06,30,01,52,18.10
2015,06,30,01,53,18.10
2015,06,30,01,54,18.10
2015,06,30,01,55,18.00
2015,06,30,01,56,18.00
2015,06,30,01,57,17.90
2015,06,30,01,58,17.90
2015,06,30,01,59,17.90
2015,06,30,02,00,17.90
2015,06,30,02,01,17.80
2015,06,30,02,02,17.80
2015,06,30,02,03,17.80
2015,06,30,02,04,17.80
2015,06,30,02,05,17.80
2015,06,30,02,06,17.80
2015,06,30,02,07,17.80
2015,06,30,02,08,17.80
2015,06,30,02,09,17.80
2015,06,30,02,10,17.80
2015,06,30,02,11,17.80
2015,06,30,02,12,17.80
2015,06,30,02,13,17.80
2015,06,30,02,14,17.80
2015,06,30,02,15,17.80
2015,06,30,02,16,17.80
2015,06,30,02,17,17.80
2015,06,30,02,18,17.80
2015,06,30,02,19,17.80
2015,06,30,02,20,17.80
2015,06,30,02,21,17.80
2015,06,30,02,22,17.80
2015,06,30,02,23,17.80
2015,06,30,02,24,17.80
2015,06,30,02,25,17.80
2015,06,30,02,26,17.80
2015,06,30,02,27,17.80
2015,06,30,02,28,17.80
2015,06,30,02,29,17.80
2015,06,30,02,30,17.80
2015,06,30,02,31,17.80
2015,06,30,02,32,17.80
2015,06,30,02,33,17.80
2015,06,30,02,34,17.80
2015,06,30,02,35,17.80
2015,06,30,02,36,17.80
2015,06,30,02,37,17.80
2015,06,30,02,38,17.80
2015,06,30,02,39,17.70
2015,06,30,02,40,17.70
2015,06,30,02,41,17.70
2015,06,30,02,42,17.70
2015,06,30,02,43,17.70
2015,06,30,02,44,17.70
2015,06,30,02,45,17.70
2015,06,30,02,46,17.70
2015,06,30,02,47,17.70
2015,06,30,02,48,17.70
2015,06,30,02,49,17.70
2015,06,30,02,50,17.70
2015,06,30,02,51,17.70
2015,06,30,02,52,17.70
2015,06,30,02,53,17.70
2015,06,30,02,54,17.60
2015,06,30,02,55,17.60
2015,06,30,02,56,17.60
2015,06,30,02,57,17.60
2015,06,30,02,58,17.60
2015,06,30,02,59,17.60
2015,06,30,03,00,17.60
2015,06,30,03,01,17.60
2015,06,30,03,02,17.60
2015,06,30,03,03,17.60
2015,06,30,03,04,17.60
2015,06,30,03,05,17.50
2015,06,30,03,06,17.50
2015,06,30,03,07,17.50
2015,06,30,03,08,17.50
2015,06,30,03,09,17.50
2015,06,30,03,10,17.50
2015,06,30,03,11,17.50
2015,06,30,03,12,17.50
2015,06,30,03,13,17.50
2015,06,30,03,14,17.50
2015,06,30,03,15,17.50
2015,06,30,03,16,17.50
2015,06,30,03,17,17.50
2015,06,30,03,18,17.50
2015,06,30,03,19,17.50
2015,06,30,03,20,17.40
2015,06,30,03,21,17.40
2015,06,30,03,22,17.40
2015,06,30,03,23,17.40
2015,06,30,03,24,17.40
2015,06,30,03,25,17.40
2015,06,30,03,26,17.40
2015,06,30,03,27,17.40
2015,06,30,03,28,17.40
2015,06,30,03,29,17.40
2015,06,30,03,30,17.40
2015,06,30,03,31,17.40
2015,06,30,03,32,17.40
2015,06,30,03,33,17.40
2015,06,30,03,34,17.40
2015,06,30,03,35,17.40
2015,06,30,03,36,17.40
2015,06,30,03,37,17.40
2015,06,30,03,38,17.40
2015,06,30,03,39,17.40
2015,06,30,03,40,17.40
2015,06,30,03,41,17.40
2015,06,30,03,42,17.40
2015,06,30,03,43,17.40
2015,06,30,03,44,17.40
2015,06,30,03,45,17.40
2015,06,30,03,46,17.40
2015,06,30,03,47,17.40
2015,06,30,03,48,17.40
2015,06,30,03,49,17.40
2015,06,30,03,50,17.40
2015,06,30,03,51,17.40
2015,06,30,03,52,17.40
2015,06,30,03,53,17.40
2015,06,30,03,54,17.40
2015,06,30,03,55,17.40
2015,06,30,03,56,17.40
2015,06,30,03,57,17.40
2015,06,30,03,58,17.40
2015,06,30,03,59,17.40
2015,06,30,04,00,17.40
2015,06,30,04,01,17.40
2015,06,30,04,02,17.40
2015,06,30,04,03,17.40
2015,06,30,04,04,17.40
2015,06,30,04,05,17.40
2015,06,30,04,06,17.40
2015,06,30,04,07,17.40
2015,06,30,04,08,17.40
2015,06,30,04,09,17.40
2015,06,30,04,10,17.40
2015,06,30,04,11,17.40
2015,06,30,04,12,17.40
2015,06,30,04,13,17.40
2015,06,30,04,14,17.40
2015,06,30,04,15,17.40
2015,06,30,04,16,17.30
2015,06,30,04,17,17.30
2015,06,30,04,18,17.30
2015,06,30,04,19,17.30
2015,06,30,04,20,17.30
2015,06,30,04,21,17.30
2015,06,30,04,22,17.30
2015,06,30,04,23,17.30
2015,06,30,04,24,17.30
2015,06,30,04,25,17.20
2015,06,30,04,26,17.20
2015,06,30,04,27,17.20
2015,06,30,04,28,17.20
2015,06,30,04,29,17.20
2015,06,30,04,30,17.20
2015,06,30,04,31,17.20
2015,06,30,04,32,17.20
2015,06,30,04,33,17.20
2015,06,30,04,34,17.20
2015,06,30,04,35,17.20
2015,06,30,04,36,17.20
2015,06,30,04,37,17.20
2015,06,30,04,38,17.20
2015,06,30,04,39,17.20
2015,06,30,04,40,17.20
2015,06,30,04,41,17.20
2015,06,30,04,42,17.20
2015,06,30,04,43,17.10
2015,06,30,04,44,17.10
2015,06,30,04,45,17.10
2015,06,30,04,46,17.10
2015,06,30,04,47,17.10
2015,06,30,04,48,17.10
2015,06,30,04,49,17.10
2015,06,30,04,50,17.10
2015,06,30,04,51,17.10
2015,06,30,04,52,17.10
2015,06,30,04,53,17.10
2015,06,30,04,54,17.10
2015,06,30,04,55,17.10
2015,06,30,04,56,17.10
2015,06,30,04,57,17.10
2015,06,30,04,58,17.10
2015,06,30,04,59,17.10
2015,06,30,05,00,17.10
2015,06,30,05,01,17.00
2015,06,30,05,02,17.00
2015,06,30,05,03,17.00
2015,06,30,05,04,17.00
2015,06,30,05,05,16.90
2015,06,30,05,06,16.90
2015,06,30,05,07,16.90
2015,06,30,05,08,16.80
2015,06,30,05,09,16.80
2015,06,30,05,10,16.80
2015,06,30,05,11,16.80
2015,06,30,05,12,16.70
2015,06,30,05,13,16.70
2015,06,30,05,14,16.70
2015,06,30,05,15,16.70
2015,06,30,05,16,16.60
2015,06,30,05,17,16.60
2015,06,30,05,18,16.60
2015,06,30,05,19,16.50
2015,06,30,05,20,16.50
2015,06,30,05,21,16.40
2015,06,30,05,22,16.40
2015,06,30,05,23,16.30
2015,06,30,05,24,16.30
2015,06,30,05,25,16.30
2015,06,30,05,26,16.20
2015,06,30,05,27,16.20
2015,06,30,05,28,16.20
2015,06,30,05,29,16.10
2015,06,30,05,30,16.10
2015,06,30,05,31,16.10
2015,06,30,05,32,16.10
2015,06,30,05,33,16.00
2015,06,30,05,34,16.00
2015,06,30,05,35,16.00
2015,06,30,05,36,15.90
2015,06,30,05,37,15.90
2015,06,30,05,38,15.90
2015,06,30,05,39,15.90
2015,06,30,05,40,15.90
2015,06,30,05,41,15.80
2015,06,30,05,42,15.80
2015,06,30,05,43,15.80
2015,06,30,05,44,15.80
2015,06,30,05,45,15.80
2015,06,30,05,46,15.80
2015,06,30,05,47,15.80
2015,06,30,05,48,15.80
2015,06,30,05,49,15.80
2015,06,30,05,50,15.70
2015,06,30,05,51,15.70
2015,06,30,05,52,15.70
2015,06,30,05,53,15.70
2015,06,30,05,54,15.70
2015,06,30,05,55,15.70
2015,06,30,05,56,15.70
2015,06,30,05,57,15.70
2015,06,30,05,58,15.70
2015,06,30,05,59,15.70
2015,06,30,06,00,15.70
2015,06,30,06,01,15.70
2015,06,30,06,02,15.80
2015,06,30,06,03,15.80
2015,06,30,06,04,15.80
2015,06,30,06,05,15.80
2015,06,30,06,06,15.90
2015,06,30,06,07,15.90
2015,06,30,06,08,15.90
2015,06,30,06,09,15.90
2015,06,30,06,10,16.00
2015,06,30,06,11,16.00
2015,06,30,06,12,16.10
2015,06,30,06,13,16.10
2015,06,30,06,14,16.10
2015,06,30,06,15,16.20
2015,06,30,06,16,16.20
2015,06,30,06,17,16.20
2015,06,30,06,18,16.20
2015,06,30,06,19,16.20
2015,06,30,06,20,16.30
2015,06,30,06,21,16.30
2015,06,30,06,22,16.30
2015,06,30,06,23,16.40
2015,06,30,06,24,16.40
2015,06,30,06,25,16.40
2015,06,30,06,26,16.50
2015,06,30,06,27,16.50
2015,06,30,06,28,16.60
2015,06,30,06,29,16.60
2015,06,30,06,30,16.60
2015,06,30,06,31,16.70
2015,06,30,06,32,16.70
2015,06,30,06,33,16.70
2015,06,30,06,34,16.80
2015,06,30,06,35,16.80
2015,06,30,06,36,16.80
2015,06,30,06,37,16.80
2015,06,30,06,38,16.80
2015,06,30,06,39,16.80
2015,06,30,06,40,16.70
2015,06,30,06,41,16.70
2015,06,30,06,42,16.60
2015,06,30,06,43,16.50
2015,06,30,06,44,16.40
2015,06,30,06,45,16.40
2015,06,30,06,46,16.30
2015,06,30,06,47,16.30
2015,06,30,06,48,16.20
2015,06,30,06,49,16.20
2015,06,30,06,50,16.20
2015,06,30,06,51,16.10
2015,06,30,06,52,16.10
2015,06,30,06,53,16.00
2015,06,30,06,54,16.00
2015,06,30,06,55,16.00
2015,06,30,06,56,15.90
2015,06,30,06,57,15.90
2015,06,30,06,58,15.90
2015,06,30,06,59,15.90
2015,06,30,07,00,15.90
2015,06,30,07,01,15.90
2015,06,30,07,02,15.90
2015,06,30,07,03,16.00
2015,06,30,07,04,16.00
2015,06,30,07,05,16.00
2015,06,30,07,06,16.10
2015,06,30,07,07,16.20
2015,06,30,07,08,16.20
2015,06,30,07,09,16.30
2015,06,30,07,10,16.30
2015,06,30,07,11,16.30
2015,06,30,07,12,16.30
2015,06,30,07,13,16.30
2015,06,30,07,14,16.30
2015,06,30,07,15,16.30
2015,06,30,07,16,16.30
2015,06,30,07,17,16.30
2015,06,30,07,18,16.30
2015,06,30,07,19,16.30
2015,06,30,07,20,16.30
2015,06,30,07,21,16.30
2015,06,30,07,22,16.30
2015,06,30,07,23,16.30
2015,06,30,07,24,16.20
2015,06,30,07,25,16.20
2015,06,30,07,26,16.10
2015,06,30,07,27,16.10
2015,06,30,07,28,16.20
2015,06,30,07,29,16.20
2015,06,30,07,30,16.20
2015,06,30,07,31,16.20
2015,06,30,07,32,16.20
2015,06,30,07,33,16.30
2015,06,30,07,34,16.40
2015,06,30,07,35,16.40
2015,06,30,07,36,16.50
2015,06,30,07,37,16.60
2015,06,30,07,38,16.60
2015,06,30,07,39,16.70
2015,06,30,07,40,16.70
2015,06,30,07,41,16.70
2015,06,30,07,42,16.70
2015,06,30,07,43,16.70
2015,06,30,07,44,16.70
2015,06,30,07,45,16.70
2015,06,30,07,46,16.80
2015,06,30,07,47,16.80
2015,06,30,07,48,16.80
2015,06,30,07,49,16.80
2015,06,30,07,50,16.90
2015,06,30,07,51,16.90
2015,06,30,07,52,16.90
2015,06,30,07,53,16.90
2015,06,30,07,54,16.90
2015,06,30,07,55,16.90
2015,06,30,07,56,16.90
2015,06,30,07,57,16.90
2015,06,30,07,58,17.00
2015,06,30,07,59,17.00
2015,06,30,08,00,17.10
2015,06,30,08,01,17.10
2015,06,30,08,02,17.10
2015,06,30,08,03,17.10
2015,06,30,08,04,17.10
2015,06,30,08,05,17.10
2015,06,30,08,06,17.10
2015,06,30,08,07,17.10
2015,06,30,08,08,17.10
2015,06,30,08,09,17.10
2015,06,30,08,10,17.20
2015,06,30,08,11,17.20
2015,06,30,08,12,17.30
2015,06,30,08,13,17.40
2015,06,30,08,14,17.40
2015,06,30,08,15,17.50
2015,06,30,08,16,17.60
2015,06,30,08,17,17.50
2015,06,30,08,18,17.60
2015,06,30,08,19,17.60
2015,06,30,08,20,17.60
2015,06,30,08,21,17.60
2015,06,30,08,22,17.70
2015,06,30,08,23,17.70
2015,06,30,08,24,17.80
2015,06,30,08,25,17.80
2015,06,30,08,26,17.80
2015,06,30,08,27,17.90
2015,06,30,08,28,17.90
2015,06,30,08,29,18.00
2015,06,30,08,30,18.00
2015,06,30,08,31,18.00
2015,06,30,08,32,18.10
2015,06,30,08,33,18.10
2015,06,30,08,34,18.10
2015,06,30,08,35,18.10
2015,06,30,08,36,18.10
2015,06,30,08,37,18.20
2015,06,30,08,38,18.20
2015,06,30,08,39,18.20
2015,06,30,08,40,18.20
2015,06,30,08,41,18.30
2015,06,30,08,42,18.30
2015,06,30,08,43,18.30
2015,06,30,08,44,18.30
2015,06,30,08,45,18.40
2015,06,30,08,46,18.40
2015,06,30,08,47,18.40
2015,06,30,08,48,18.40
2015,06,30,08,49,18.40
2015,06,30,08,50,18.40
2015,06,30,08,51,18.40
2015,06,30,08,52,18.40
2015,06,30,08,53,18.30
2015,06,30,08,54,18.30
2015,06,30,08,55,18.20
2015,06,30,08,56,18.10
2015,06,30,08,57,18.10
2015,06,30,08,58,18.10
2015,06,30,08,59,18.10
2015,06,30,09,00,18.10
2015,06,30,09,01,18.20
2015,06,30,09,02,18.20
2015,06,30,09,03,18.20
2015,06,30,09,04,18.20
2015,06,30,09,05,18.20
2015,06,30,09,06,18.20
2015,06,30,09,07,18.20
2015,06,30,09,08,18.20
2015,06,30,09,09,18.20
2015,06,30,09,10,18.20
2015,06,30,09,11,18.30
2015,06,30,09,12,18.40
2015,06,30,09,13,18.50
2015,06,30,09,14,18.50
2015,06,30,09,15,18.60
2015,06,30,09,16,18.70
2015,06,30,09,17,18.70
2015,06,30,09,18,18.80
2015,06,30,09,19,19.00
2015,06,30,09,20,19.10
2015,06,30,09,21,19.20
2015,06,30,09,22,19.30
2015,06,30,09,23,19.50
2015,06,30,09,24,19.60
2015,06,30,09,25,19.70
2015,06,30,09,26,19.80
2015,06,30,09,27,19.90
2015,06,30,09,28,20.10
2015,06,30,09,29,20.20
2015,06,30,09,30,20.30
2015,06,30,09,31,20.40
2015,06,30,09,32,20.50
2015,06,30,09,33,20.60
2015,06,30,09,34,20.70
2015,06,30,09,35,20.80
2015,06,30,09,36,20.90
2015,06,30,09,37,21.00
2015,06,30,09,38,21.10
2015,06,30,09,39,21.10
2015,06,30,09,40,21.20
2015,06,30,09,41,21.30
2015,06,30,09,42,21.30
2015,06,30,09,43,21.40
2015,06,30,09,44,21.50
2015,06,30,09,45,21.60
2015,06,30,09,46,21.60
2015,06,30,09,47,21.70
2015,06,30,09,48,21.70
2015,06,30,09,49,21.70
2015,06,30,09,50,21.80
2015,06,30,09,51,21.80
2015,06,30,09,52,21.80
2015,06,30,09,53,21.80
2015,06,30,09,54,21.80
2015,06,30,09,55,21.80
2015,06,30,09,56,21.80
2015,06,30,09,57,21.70
2015,06,30,09,58,21.70
2015,06,30,09,59,21.60
2015,06,30,10,00,21.70
2015,06,30,10,01,21.70
2015,06,30,10,02,21.70
2015,06,30,10,03,21.70
2015,06,30,10,04,21.70
2015,06,30,10,05,21.80
2015,06,30,10,06,21.80
2015,06,30,10,07,21.80
2015,06,30,10,08,21.80
2015,06,30,10,09,21.80
2015,06,30,10,10,21.90
2015,06,30,10,11,21.90
2015,06,30,10,12,21.90
2015,06,30,10,13,22.00
2015,06,30,10,14,22.10
2015,06,30,10,15,22.10
2015,06,30,10,16,22.20
2015,06,30,10,17,22.20
2015,06,30,10,18,22.20
2015,06,30,10,19,22.30
2015,06,30,10,20,22.30
2015,06,30,10,21,22.40
2015,06,30,10,22,22.40
2015,06,30,10,23,22.40
2015,06,30,10,24,22.40
2015,06,30,10,25,22.40
2015,06,30,10,26,22.50
2015,06,30,10,27,22.60
2015,06,30,10,28,22.70
2015,06,30,10,29,22.80
2015,06,30,10,30,22.80
2015,06,30,10,31,22.80
2015,06,30,10,32,22.80
2015,06,30,10,33,22.80
2015,06,30,10,34,22.80
2015,06,30,10,35,22.80
2015,06,30,10,36,22.80
2015,06,30,10,37,22.80
2015,06,30,10,38,22.80
2015,06,30,10,39,22.80
2015,06,30,10,40,22.80
2015,06,30,10,41,22.80
2015,06,30,10,42,22.80
2015,06,30,10,43,22.80
2015,06,30,10,44,22.80
2015,06,30,10,45,22.80
2015,06,30,10,46,22.70
2015,06,30,10,47,22.70
2015,06,30,10,48,22.70
2015,06,30,10,49,22.70
2015,06,30,10,50,22.70
2015,06,30,10,51,22.60
2015,06,30,10,52,22.60
2015,06,30,10,53,22.60
2015,06,30,10,54,22.60
2015,06,30,10,55,22.60
2015,06,30,10,56,22.60
2015,06,30,10,57,22.70
2015,06,30,10,58,22.70
2015,06,30,10,59,22.70
2015,06,30,11,00,22.70
2015,06,30,11,01,22.70
2015,06,30,11,02,22.70
2015,06,30,11,03,22.80
2015,06,30,11,04,22.80
2015,06,30,11,05,22.80
2015,06,30,11,06,22.80
2015,06,30,11,07,22.80
2015,06,30,11,08,22.90
2015,06,30,11,09,22.90
2015,06,30,11,10,22.90
2015,06,30,11,11,22.90
2015,06,30,11,12,22.90
2015,06,30,11,13,22.90
2015,06,30,11,14,22.90
2015,06,30,11,15,22.90
2015,06,30,11,16,22.90
2015,06,30,11,17,22.90
2015,06,30,11,18,22.80
2015,06,30,11,19,22.80
2015,06,30,11,20,22.70
2015,06,30,11,21,22.70
2015,06,30,11,22,22.80
2015,06,30,11,23,22.80
2015,06,30,11,24,22.90
2015,06,30,11,25,23.00
2015,06,30,11,26,23.00
2015,06,30,11,27,23.10
2015,06,30,11,28,23.20
2015,06,30,11,29,23.30
2015,06,30,11,30,23.40
2015,06,30,11,31,23.50
2015,06,30,11,32,23.50
2015,06,30,11,33,23.60
2015,06,30,11,34,23.70
2015,06,30,11,35,23.80
2015,06,30,11,36,23.90
2015,06,30,11,37,24.00
2015,06,30,11,38,24.00
2015,06,30,11,39,24.10
2015,06,30,11,40,24.20
2015,06,30,11,41,24.20
2015,06,30,11,42,24.20
2015,06,30,11,43,24.10
2015,06,30,11,44,24.00
2015,06,30,11,45,24.00
2015,06,30,11,46,23.90
2015,06,30,11,47,23.80
2015,06,30,11,48,23.80
2015,06,30,11,49,23.70
2015,06,30,11,50,23.70
2015,06,30,11,51,23.70
2015,06,30,11,52,23.70
2015,06,30,11,53,23.60
2015,06,30,11,54,23.60
2015,06,30,11,55,23.70
2015,06,30,11,56,23.70
2015,06,30,11,57,23.80
2015,06,30,11,58,23.80
2015,06,30,11,59,23.90
2015,06,30,12,00,24.10
2015,06,30,12,01,24.20
2015,06,30,12,02,24.20
2015,06,30,12,03,24.30
2015,06,30,12,04,24.30
2015,06,30,12,05,24.30
2015,06,30,12,06,24.30
2015,06,30,12,07,24.30
2015,06,30,12,08,24.30
2015,06,30,12,09,24.30
2015,06,30,12,10,24.30
2015,06,30,12,11,24.20
2015,06,30,12,12,24.10
2015,06,30,12,13,24.00
2015,06,30,12,14,23.80
2015,06,30,12,15,23.60
2015,06,30,12,16,23.40
2015,06,30,12,17,23.30
2015,06,30,12,18,23.20
2015,06,30,12,19,23.20
2015,06,30,12,20,23.20
2015,06,30,12,21,23.10
2015,06,30,12,22,23.00
2015,06,30,12,23,23.00
2015,06,30,12,24,22.90
2015,06,30,12,25,22.90
2015,06,30,12,26,22.90
2015,06,30,12,27,22.90
2015,06,30,12,28,23.00
2015,06,30,12,29,23.10
2015,06,30,12,30,23.20
2015,06,30,12,31,23.20
2015,06,30,12,32,23.30
2015,06,30,12,33,23.30
2015,06,30,12,34,23.30
2015,06,30,12,35,23.30
2015,06,30,12,36,23.30
2015,06,30,12,37,23.20
2015,06,30,12,38,23.10
2015,06,30,12,39,23.00
2015,06,30,12,40,22.90
2015,06,30,12,41,22.80
2015,06,30,12,42,22.70
2015,06,30,12,43,22.70
2015,06,30,12,44,22.70
2015,06,30,12,45,22.70
2015,06,30,12,46,22.70
2015,06,30,12,47,22.70
2015,06,30,12,48,22.70
2015,06,30,12,49,22.70
2015,06,30,12,50,22.70
2015,06,30,12,51,22.70
2015,06,30,12,52,22.70
2015,06,30,12,53,22.70
2015,06,30,12,54,22.60
2015,06,30,12,55,22.50
2015,06,30,12,56,22.50
2015,06,30,12,57,22.40
2015,06,30,12,58,22.30
2015,06,30,12,59,22.20
2015,06,30,13,00,22.10
2015,06,30,13,01,22.00
2015,06,30,13,02,21.90
2015,06,30,13,03,21.80
2015,06,30,13,04,21.80
2015,06,30,13,05,21.70
2015,06,30,13,06,21.60
2015,06,30,13,07,21.50
2015,06,30,13,08,21.40
2015,06,30,13,09,21.40
2015,06,30,13,10,21.30
2015,06,30,13,11,21.30
2015,06,30,13,12,21.30
2015,06,30,13,13,21.20
2015,06,30,13,14,21.20
2015,06,30,13,15,21.10
2015,06,30,13,16,20.90
2015,06,30,13,17,20.80
2015,06,30,13,18,20.60
2015,06,30,13,19,20.50
2015,06,30,13,20,20.40
2015,06,30,13,21,20.30
2015,06,30,13,22,20.30
2015,06,30,13,23,20.30
2015,06,30,13,24,20.20
2015,06,30,13,25,20.20
2015,06,30,13,26,20.10
2015,06,30,13,27,20.10
2015,06,30,13,28,20.00
2015,06,30,13,29,19.90
2015,06,30,13,30,19.90
2015,06,30,13,31,19.80
2015,06,30,13,32,19.80
2015,06,30,13,33,19.80
2015,06,30,13,34,19.70
2015,06,30,13,35,19.70
2015,06,30,13,36,19.70
2015,06,30,13,37,19.70
2015,06,30,13,38,19.70
2015,06,30,13,39,19.70
2015,06,30,13,40,19.70
2015,06,30,13,41,19.60
2015,06,30,13,42,19.60
2015,06,30,13,43,19.60
2015,06,30,13,44,19.50
2015,06,30,13,45,19.50
2015,06,30,13,46,19.40
2015,06,30,13,47,19.40
2015,06,30,13,48,19.40
2015,06,30,13,49,19.50
2015,06,30,13,50,19.60
2015,06,30,13,51,19.70
2015,06,30,13,52,19.80
2015,06,30,13,53,19.90
2015,06,30,13,54,19.90
2015,06,30,13,55,19.90
2015,06,30,13,56,19.90
2015,06,30,13,57,19.70
2015,06,30,13,58,19.50
2015,06,30,13,59,19.40
2015,06,30,14,00,19.20
2015,06,30,14,01,19.00
2015,06,30,14,02,18.90
2015,06,30,14,03,18.80
2015,06,30,14,04,18.80
2015,06,30,14,05,18.70
2015,06,30,14,06,18.60
2015,06,30,14,07,18.60
2015,06,30,14,08,18.60
2015,06,30,14,09,18.70
2015,06,30,14,10,18.80
2015,06,30,14,11,18.90
2015,06,30,14,12,19.00
2015,06,30,14,13,19.20
2015,06,30,14,14,19.30
2015,06,30,14,15,19.30
2015,06,30,14,16,19.30
2015,06,30,14,17,19.20
2015,06,30,14,18,19.10
2015,06,30,14,19,19.10
2015,06,30,14,20,19.20
2015,06,30,14,21,19.20
2015,06,30,14,22,19.20
2015,06,30,14,23,19.20
2015,06,30,14,24,19.20
2015,06,30,14,25,19.20
2015,06,30,14,26,19.20
2015,06,30,14,27,19.20
2015,06,30,14,28,19.10
2015,06,30,14,29,19.00
2015,06,30,14,30,18.90
2015,06,30,14,31,18.80
2015,06,30,14,32,18.70
2015,06,30,14,33,18.60
2015,06,30,14,34,18.50
2015,06,30,14,35,18.30
2015,06,30,14,36,18.20
2015,06,30,14,37,18.00
2015,06,30,14,38,17.90
2015,06,30,14,39,17.90
2015,06,30,14,40,17.80
2015,06,30,14,41,17.70
2015,06,30,14,42,17.70
2015,06,30,14,43,17.70
2015,06,30,14,44,17.70
2015,06,30,14,45,17.70
2015,06,30,14,46,17.80
2015,06,30,14,47,17.90
2015,06,30,14,48,17.90
2015,06,30,14,49,17.90
2015,06,30,14,50,17.90
2015,06,30,14,51,17.90
2015,06,30,14,52,18.00
2015,06,30,14,53,18.10
2015,06,30,14,54,18.20
2015,06,30,14,55,18.20
2015,06,30,14,56,18.30
2015,06,30,14,57,18.40
2015,06,30,14,58,18.50
2015,06,30,14,59,18.60
2015,06,30,15,00,18.60
2015,06,30,15,01,18.70
2015,06,30,15,02,18.80
2015,06,30,15,03,18.80
2015,06,30,15,04,18.90
2015,06,30,15,05,19.00
2015,06,30,15,06,19.10
2015,06,30,15,07,19.20
2015,06,30,15,08,19.20
2015,06,30,15,09,19.20
2015,06,30,15,10,19.20
2015,06,30,15,11,19.20
2015,06,30,15,12,19.20
2015,06,30,15,13,19.20
2015,06,30,15,14,19.30
2015,06,30,15,15,19.30
2015,06,30,15,16,19.30
2015,06,30,15,17,19.20
2015,06,30,15,18,19.10
2015,06,30,15,19,19.00
2015,06,30,15,20,19.00
2015,06,30,15,21,18.90
2015,06,30,15,22,18.90
2015,06,30,15,23,19.00
2015,06,30,15,24,19.00
2015,06,30,15,25,19.10
2015,06,30,15,26,19.10
2015,06,30,15,27,19.10
2015,06,30,15,28,19.20
2015,06,30,15,29,19.30
2015,06,30,15,30,19.40
2015,06,30,15,31,19.40
2015,06,30,15,32,19.40
2015,06,30,15,33,19.30
2015,06,30,15,34,19.30
2015,06,30,15,35,19.30
2015,06,30,15,36,19.30
2015,06,30,15,37,19.30
2015,06,30,15,38,19.40
2015,06,30,15,39,19.40
2015,06,30,15,40,19.40
2015,06,30,15,41,19.30
2015,06,30,15,42,19.20
2015,06,30,15,43,19.10
2015,06,30,15,44,19.00
2015,06,30,15,45,18.90
2015,06,30,15,46,18.80
2015,06,30,15,47,18.80
2015,06,30,15,48,18.70
2015,06,30,15,49,18.70
2015,06,30,15,50,18.70
2015,06,30,15,51,18.70
2015,06,30,15,52,18.70
2015,06,30,15,53,18.80
2015,06,30,15,54,18.90
2015,06,30,15,55,19.00
2015,06,30,15,56,19.00
2015,06,30,15,57,19.00
2015,06,30,15,58,19.00
2015,06,30,15,59,19.00
2015,06,30,16,00,19.10
2015,06,30,16,01,19.20
2015,06,30,16,02,19.20
2015,06,30,16,03,19.30
2015,06,30,16,04,19.40
2015,06,30,16,05,19.40
2015,06,30,16,06,19.50
2015,06,30,16,07,19.40
2015,06,30,16,08,19.40
2015,06,30,16,09,19.40
2015,06,30,16,10,19.40
2015,06,30,16,11,19.40
2015,06,30,16,12,19.40
2015,06,30,16,13,19.40
2015,06,30,16,14,19.50
2015,06,30,16,15,19.60
2015,06,30,16,16,19.70
2015,06,30,16,17,19.80
2015,06,30,16,18,19.90
2015,06,30,16,19,20.00
2015,06,30,16,20,20.10
2015,06,30,16,21,20.20
2015,06,30,16,22,20.20
2015,06,30,16,23,20.30
2015,06,30,16,24,20.50
2015,06,30,16,25,20.60
2015,06,30,16,26,20.60
2015,06,30,16,27,20.60
2015,06,30,16,28,20.60
2015,06,30,16,29,20.60
2015,06,30,16,30,20.50
2015,06,30,16,31,20.50
2015,06,30,16,32,20.40
2015,06,30,16,33,20.30
2015,06,30,16,34,20.20
2015,06,30,16,35,20.20
2015,06,30,16,36,20.20
2015,06,30,16,37,20.20
2015,06,30,16,38,20.20
2015,06,30,16,39,20.20
2015,06,30,16,40,20.20
2015,06,30,16,41,20.20
2015,06,30,16,42,20.20
2015,06,30,16,43,20.30
2015,06,30,16,44,20.30
2015,06,30,16,45,20.40
2015,06,30,16,46,20.40
2015,06,30,16,47,20.40
2015,06,30,16,48,20.40
2015,06,30,16,49,20.50
2015,06,30,16,50,20.60
2015,06,30,16,51,20.60
2015,06,30,16,52,20.70
2015,06,30,16,53,20.70
2015,06,30,16,54,20.70
2015,06,30,16,55,20.70
2015,06,30,16,56,20.70
2015,06,30,16,57,20.70
2015,06,30,16,58,20.70
2015,06,30,16,59,20.60
2015,06,30,17,00,20.60
2015,06,30,17,01,20.70
2015,06,30,17,02,20.70
2015,06,30,17,03,20.70
2015,06,30,17,04,20.70
2015,06,30,17,05,20.80
2015,06,30,17,06,20.80
2015,06,30,17,07,20.80
2015,06,30,17,08,20.80
2015,06,30,17,09,20.80
2015,06,30,17,10,20.80
2015,06,30,17,11,20.80
2015,06,30,17,12,20.80
2015,06,30,17,13,20.80
2015,06,30,17,14,20.90
2015,06,30,17,15,20.90
2015,06,30,17,16,20.90
2015,06,30,17,17,20.90
2015,06,30,17,18,21.00
2015,06,30,17,19,21.00